TimeMDT,TemperatureF,Dew PointF,Humidity,Sea Level PressureIn,VisibilityMPH,Wind Direction,Wind SpeedMPH,Gust SpeedMPH,PrecipitationIn,Events,Conditions,WindDirDegrees,DateUTC
12:53 AM,54.0,39.0,57,30.03,10.0,SSW,6.9,-,N/A,,Clear,200,2013-08-01 06:53:00
1:53 AM,52.0,39.0,61,30.02,10.0,SSW,8.1,-,N/A,,Clear,210,2013-08-01 07:53:00
2:53 AM,52.0,37.9,59,30.01,10.0,SSW,8.1,-,N/A,,Clear,210,2013-08-01 08:53:00
3:53 AM,51.1,39.0,63,30.01,10.0,SSW,5.8,-,N/A,,Clear,210,2013-08-01 09:53:00
4:53 AM,51.1,39.0,63,29.99,10.0,SSW,8.1,-,N/A,,Clear,210,2013-08-01 10:53:00
5:53 AM,48.9,41.0,74,30.00,10.0,Calm,Calm,-,N/A,,Clear,0,2013-08-01 11:53:00
6:53 AM,50.0,42.1,74,30.01,10.0,Calm,Calm,-,N/A,,Mostly Cloudy,0,2013-08-01 12:53:00
7:53 AM,57.0,45.0,64,30.01,10.0,Calm,Calm,-,N/A,,Mostly Cloudy,0,2013-08-01 13:53:00
8:53 AM,60.1,45.0,57,30.04,10.0,NW,3.5,-,N/A,,Mostly Cloudy,320,2013-08-01 14:53:00
9:53 AM,61.0,45.0,56,30.05,10.0,North,5.8,-,N/A,,Mostly Cloudy,10,2013-08-01 15:53:00
10:53 AM,68.0,43.0,40,30.01,10.0,Calm,Calm,-,N/A,,Mostly Cloudy,0,2013-08-01 16:53:00
11:53 AM,72.0,41.0,33,30.01,10.0,South,19.6,24.2,N/A,,Overcast,180,2013-08-01 17:53:00
12:01 PM,71.6,41.0,33,30.38,10.0,South,16.1,-,N/A,,Overcast,180,2013-08-01 18:01:00
12:53 PM,62.1,48.0,60,30.11,9.0,ENE,6.9,-,0.00,Rain,Rain,60,2013-08-01 18:53:00
1:53 PM,57.9,54.0,87,30.18,7.0,SE,5.8,-,0.04,Rain,Light Rain,130,2013-08-01 19:53:00
2:53 PM,55.9,53.1,90,30.19,7.0,SSE,11.5,-,0.13,Rain,Light Rain,150,2013-08-01 20:53:00
3:53 PM,57.0,52.0,83,30.16,9.0,Calm,Calm,-,0.03,Rain,Light Rain,0,2013-08-01 21:53:00
4:53 PM,57.0,52.0,83,30.13,10.0,Calm,Calm,-,0.00,Rain,Light Rain,0,2013-08-01 22:53:00
5:53 PM,57.9,52.0,81,30.10,10.0,SSE,9.2,-,0.00,,Mostly Cloudy,160,2013-08-01 23:53:00
6:53 PM,57.0,53.1,87,30.09,10.0,SSE,3.5,-,0.00,Rain,Light Rain,160,2013-08-02 00:53:00
7:53 PM,55.9,52.0,87,30.05,10.0,East,3.5,-,0.00,,Overcast,100,2013-08-02 01:53:00
8:53 PM,55.9,53.1,90,30.05,10.0,Calm,Calm,-,0.00,Rain,Light Rain,0,2013-08-02 02:53:00
9:53 PM,54.0,52.0,93,30.03,10.0,SE,6.9,-,0.00,,Clear,130,2013-08-02 03:53:00
10:53 PM,52.0,48.9,89,29.99,10.0,SW,5.8,-,N/A,,Clear,220,2013-08-02 04:53:00
11:53 PM,50.0,48.0,93,29.98,10.0,Calm,Calm,-,N/A,,Clear,0,2013-08-02 05:53:00